Year,Month,Day,Hour,Minute,Value (Times are PST for temperature in C)
2009,07,02,00,00,13.00
2009,07,02,00,01,13.00
2009,07,02,00,02,12.90
2009,07,02,00,03,12.90
2009,07,02,00,04,12.90
2009,07,02,00,05,12.90
2009,07,02,00,06,12.80
2009,07,02,00,07,12.80
2009,07,02,00,08,12.80
2009,07,02,00,09,12.80
2009,07,02,00,10,12.80
2009,07,02,00,11,12.80
2009,07,02,00,12,12.70
2009,07,02,00,13,12.70
2009,07,02,00,14,12.70
2009,07,02,00,15,12.60
2009,07,02,00,16,12.60
2009,07,02,00,17,12.60
2009,07,02,00,18,12.60
2009,07,02,00,19,12.50
2009,07,02,00,20,12.50
2009,07,02,00,21,12.50
2009,07,02,00,22,12.50
2009,07,02,00,23,12.50
2009,07,02,00,24,12.50
2009,07,02,00,25,12.50
2009,07,02,00,26,12.50
2009,07,02,00,27,12.50
2009,07,02,00,28,12.50
2009,07,02,00,29,12.40
2009,07,02,00,30,12.40
2009,07,02,00,31,12.40
2009,07,02,00,32,12.40
2009,07,02,00,33,12.30
2009,07,02,00,34,12.30
2009,07,02,00,35,12.30
2009,07,02,00,36,12.30
2009,07,02,00,37,12.30
2009,07,02,00,38,12.30
2009,07,02,00,39,12.30
2009,07,02,00,40,12.30
2009,07,02,00,41,12.30
2009,07,02,00,42,12.30
2009,07,02,00,43,12.30
2009,07,02,00,44,12.30
2009,07,02,00,45,12.30
2009,07,02,00,46,12.30
2009,07,02,00,47,12.30
2009,07,02,00,48,12.30
2009,07,02,00,49,12.20
2009,07,02,00,50,12.20
2009,07,02,00,51,12.20
2009,07,02,00,52,12.10
2009,07,02,00,53,12.10
2009,07,02,00,54,12.00
2009,07,02,00,55,12.00
2009,07,02,00,56,11.90
2009,07,02,00,57,11.90
2009,07,02,00,58,11.80
2009,07,02,00,59,11.80
2009,07,02,01,00,11.80
2009,07,02,01,01,11.80
2009,07,02,01,02,11.80
2009,07,02,01,03,11.80
2009,07,02,01,04,11.80
2009,07,02,01,05,11.80
2009,07,02,01,06,11.80
2009,07,02,01,07,11.80
2009,07,02,01,08,11.80
2009,07,02,01,09,11.80
2009,07,02,01,10,11.80
2009,07,02,01,11,11.80
2009,07,02,01,12,11.80
2009,07,02,01,13,11.80
2009,07,02,01,14,11.80
2009,07,02,01,15,11.80
2009,07,02,01,16,11.80
2009,07,02,01,17,11.80
2009,07,02,01,18,11.70
2009,07,02,01,19,11.70
2009,07,02,01,20,11.70
2009,07,02,01,21,11.60
2009,07,02,01,22,11.60
2009,07,02,01,23,11.60
2009,07,02,01,24,11.60
2009,07,02,01,25,11.50
2009,07,02,01,26,11.40
2009,07,02,01,27,11.40
2009,07,02,01,28,11.40
2009,07,02,01,29,11.40
2009,07,02,01,30,11.30
2009,07,02,01,31,11.30
2009,07,02,01,32,11.30
2009,07,02,01,33,11.30
2009,07,02,01,34,11.20
2009,07,02,01,35,11.20
2009,07,02,01,36,11.20
2009,07,02,01,37,11.10
2009,07,02,01,38,11.10
2009,07,02,01,39,11.10
2009,07,02,01,40,11.10
2009,07,02,01,41,11.10
2009,07,02,01,42,11.10
2009,07,02,01,43,10.90
2009,07,02,01,44,10.90
2009,07,02,01,45,10.90
2009,07,02,01,46,10.90
2009,07,02,01,47,10.90
2009,07,02,01,48,10.90
2009,07,02,01,49,10.90
2009,07,02,01,50,10.90
2009,07,02,01,51,10.90
2009,07,02,01,52,10.90
2009,07,02,01,53,10.90
2009,07,02,01,54,10.90
2009,07,02,01,55,10.90
2009,07,02,01,56,10.90
2009,07,02,01,57,10.90
2009,07,02,01,58,10.90
2009,07,02,01,59,10.90
2009,07,02,02,00,10.90
2009,07,02,02,01,10.90
2009,07,02,02,02,10.80
2009,07,02,02,03,10.80
2009,07,02,02,04,10.90
2009,07,02,02,05,10.90
2009,07,02,02,06,10.90
2009,07,02,02,07,10.90
2009,07,02,02,08,10.90
2009,07,02,02,09,10.90
2009,07,02,02,10,10.80
2009,07,02,02,11,10.80
2009,07,02,02,12,10.80
2009,07,02,02,13,10.70
2009,07,02,02,14,10.70
2009,07,02,02,15,10.70
2009,07,02,02,16,10.70
2009,07,02,02,17,10.60
2009,07,02,02,18,10.60
2009,07,02,02,19,10.60
2009,07,02,02,20,10.60
2009,07,02,02,21,10.60
2009,07,02,02,22,10.60
2009,07,02,02,23,10.60
2009,07,02,02,24,10.60
2009,07,02,02,25,10.50
2009,07,02,02,26,10.40
2009,07,02,02,27,10.40
2009,07,02,02,28,10.40
2009,07,02,02,29,10.40
2009,07,02,02,30,10.40
2009,07,02,02,31,10.40
2009,07,02,02,32,10.40
2009,07,02,02,33,10.40
2009,07,02,02,34,10.40
2009,07,02,02,35,10.30
2009,07,02,02,36,10.30
2009,07,02,02,37,10.30
2009,07,02,02,38,10.30
2009,07,02,02,39,10.20
2009,07,02,02,40,10.20
2009,07,02,02,41,10.20
2009,07,02,02,42,10.20
2009,07,02,02,43,10.20
2009,07,02,02,44,10.20
2009,07,02,02,45,10.20
2009,07,02,02,46,10.20
2009,07,02,02,47,10.20
2009,07,02,02,48,10.20
2009,07,02,02,49,10.30
2009,07,02,02,50,10.30
2009,07,02,02,51,10.30
2009,07,02,02,52,10.30
2009,07,02,02,53,10.40
2009,07,02,02,54,10.40
2009,07,02,02,55,10.40
2009,07,02,02,56,10.50
2009,07,02,02,57,10.60
2009,07,02,02,58,10.60
2009,07,02,02,59,10.60
2009,07,02,03,00,10.60
2009,07,02,03,01,10.60
2009,07,02,03,02,10.60
2009,07,02,03,03,10.60
2009,07,02,03,04,10.60
2009,07,02,03,05,10.60
2009,07,02,03,06,10.60
2009,07,02,03,07,10.60
2009,07,02,03,08,10.60
2009,07,02,03,09,10.60
2009,07,02,03,10,10.60
2009,07,02,03,11,10.60
2009,07,02,03,12,10.60
2009,07,02,03,13,10.60
2009,07,02,03,14,10.60
2009,07,02,03,15,10.60
2009,07,02,03,16,10.60
2009,07,02,03,17,10.60
2009,07,02,03,18,10.50
2009,07,02,03,19,10.40
2009,07,02,03,20,10.40
2009,07,02,03,21,10.40
2009,07,02,03,22,10.40
2009,07,02,03,23,10.50
2009,07,02,03,24,10.60
2009,07,02,03,25,10.60
2009,07,02,03,26,10.60
2009,07,02,03,27,10.60
2009,07,02,03,28,10.70
2009,07,02,03,29,10.70
2009,07,02,03,30,10.70
2009,07,02,03,31,10.80
2009,07,02,03,32,10.80
2009,07,02,03,33,10.80
2009,07,02,03,34,10.80
2009,07,02,03,35,10.80
2009,07,02,03,36,10.80
2009,07,02,03,37,10.80
2009,07,02,03,38,10.80
2009,07,02,03,39,10.70
2009,07,02,03,40,10.70
2009,07,02,03,41,10.60
2009,07,02,03,42,10.60
2009,07,02,03,43,10.60
2009,07,02,03,44,10.50
2009,07,02,03,45,10.40
2009,07,02,03,46,10.40
2009,07,02,03,47,10.40
2009,07,02,03,48,10.30
2009,07,02,03,49,10.30
2009,07,02,03,50,10.30
2009,07,02,03,51,10.30
2009,07,02,03,52,10.30
2009,07,02,03,53,10.20
2009,07,02,03,54,10.20
2009,07,02,03,55,10.20
2009,07,02,03,56,10.10
2009,07,02,03,57,10.10
2009,07,02,03,58,10.10
2009,07,02,03,59,10.10
2009,07,02,04,00,10.10
2009,07,02,04,01,10.00
2009,07,02,04,02,9.90
2009,07,02,04,03,9.90
2009,07,02,04,04,9.90
2009,07,02,04,05,9.90
2009,07,02,04,06,9.90
2009,07,02,04,07,9.80
2009,07,02,04,08,9.80
2009,07,02,04,09,9.80
2009,07,02,04,10,9.80
2009,07,02,04,11,9.80
2009,07,02,04,12,9.80
2009,07,02,04,13,9.70
2009,07,02,04,14,9.70
2009,07,02,04,15,9.70
2009,07,02,04,16,9.70
2009,07,02,04,17,9.70
2009,07,02,04,18,9.70
2009,07,02,04,19,9.70
2009,07,02,04,20,9.70
2009,07,02,04,21,9.70
2009,07,02,04,22,9.70
2009,07,02,04,23,9.70
2009,07,02,04,24,9.70
2009,07,02,04,25,9.70
2009,07,02,04,26,9.60
2009,07,02,04,27,9.60
2009,07,02,04,28,9.60
2009,07,02,04,29,9.60
2009,07,02,04,30,9.60
2009,07,02,04,31,9.60
2009,07,02,04,32,9.60
2009,07,02,04,33,9.50
2009,07,02,04,34,9.50
2009,07,02,04,35,9.50
2009,07,02,04,36,9.60
2009,07,02,04,37,9.60
2009,07,02,04,38,9.60
2009,07,02,04,39,9.60
2009,07,02,04,40,9.60
2009,07,02,04,41,9.60
2009,07,02,04,42,9.60
2009,07,02,04,43,9.70
2009,07,02,04,44,9.70
2009,07,02,04,45,9.70
2009,07,02,04,46,9.70
2009,07,02,04,47,9.70
2009,07,02,04,48,9.70
2009,07,02,04,49,9.60
2009,07,02,04,50,9.60
2009,07,02,04,51,9.60
2009,07,02,04,52,9.60
2009,07,02,04,53,9.60
2009,07,02,04,54,9.60
2009,07,02,04,55,9.60
2009,07,02,04,56,9.60
2009,07,02,04,57,9.60
2009,07,02,04,58,9.60
2009,07,02,04,59,9.50
2009,07,02,05,00,9.50
2009,07,02,05,01,9.50
2009,07,02,05,02,9.50
2009,07,02,05,03,9.50
2009,07,02,05,04,9.50
2009,07,02,05,05,9.50
2009,07,02,05,06,9.50
2009,07,02,05,07,9.40
2009,07,02,05,08,9.40
2009,07,02,05,09,9.40
2009,07,02,05,10,9.30
2009,07,02,05,11,9.30
2009,07,02,05,12,9.30
2009,07,02,05,13,9.20
2009,07,02,05,14,9.20
2009,07,02,05,15,9.20
2009,07,02,05,16,9.20
2009,07,02,05,17,9.20
2009,07,02,05,18,9.20
2009,07,02,05,19,9.20
2009,07,02,05,20,9.20
2009,07,02,05,21,9.20
2009,07,02,05,22,9.20
2009,07,02,05,23,9.20
2009,07,02,05,24,9.20
2009,07,02,05,25,9.10
2009,07,02,05,26,9.10
2009,07,02,05,27,9.10
2009,07,02,05,28,9.00
2009,07,02,05,29,9.00
2009,07,02,05,30,9.00
2009,07,02,05,31,9.00
2009,07,02,05,32,9.00
2009,07,02,05,33,8.90
2009,07,02,05,34,8.90
2009,07,02,05,35,8.90
2009,07,02,05,36,8.90
2009,07,02,05,37,8.90
2009,07,02,05,38,8.90
2009,07,02,05,39,8.90
2009,07,02,05,40,8.90
2009,07,02,05,41,8.90
2009,07,02,05,42,8.90
2009,07,02,05,43,9.00
2009,07,02,05,44,9.00
2009,07,02,05,45,9.00
2009,07,02,05,46,9.00
2009,07,02,05,47,9.00
2009,07,02,05,48,9.10
2009,07,02,05,49,9.10
2009,07,02,05,50,9.10
2009,07,02,05,51,9.10
2009,07,02,05,52,9.20
2009,07,02,05,53,9.20
2009,07,02,05,54,9.20
2009,07,02,05,55,9.20
2009,07,02,05,56,9.20
2009,07,02,05,57,9.20
2009,07,02,05,58,9.20
2009,07,02,05,59,9.20
2009,07,02,06,00,9.20
2009,07,02,06,01,9.20
2009,07,02,06,02,9.20
2009,07,02,06,03,9.20
2009,07,02,06,04,9.30
2009,07,02,06,05,9.30
2009,07,02,06,06,9.30
2009,07,02,06,07,9.40
2009,07,02,06,08,9.40
2009,07,02,06,09,9.40
2009,07,02,06,10,9.50
2009,07,02,06,11,9.50
2009,07,02,06,12,9.50
2009,07,02,06,13,9.60
2009,07,02,06,14,9.60
2009,07,02,06,15,9.60
2009,07,02,06,16,9.70
2009,07,02,06,17,9.70
2009,07,02,06,18,9.70
2009,07,02,06,19,9.80
2009,07,02,06,20,9.80
2009,07,02,06,21,9.90
2009,07,02,06,22,9.90
2009,07,02,06,23,10.00
2009,07,02,06,24,10.10
2009,07,02,06,25,10.10
2009,07,02,06,26,10.10
2009,07,02,06,27,10.20
2009,07,02,06,28,10.30
2009,07,02,06,29,10.40
2009,07,02,06,30,10.60
2009,07,02,06,31,10.60
2009,07,02,06,32,10.80
2009,07,02,06,33,10.90
2009,07,02,06,34,10.90
2009,07,02,06,35,11.00
2009,07,02,06,36,11.10
2009,07,02,06,37,11.10
2009,07,02,06,38,11.20
2009,07,02,06,39,11.20
2009,07,02,06,40,11.30
2009,07,02,06,41,11.40
2009,07,02,06,42,11.50
2009,07,02,06,43,11.60
2009,07,02,06,44,11.70
2009,07,02,06,45,11.80
2009,07,02,06,46,11.90
2009,07,02,06,47,12.00
2009,07,02,06,48,12.20
2009,07,02,06,49,12.40
2009,07,02,06,50,12.50
2009,07,02,06,51,12.70
2009,07,02,06,52,12.80
2009,07,02,06,53,12.90
2009,07,02,06,54,13.00
2009,07,02,06,55,13.10
2009,07,02,06,56,13.20
2009,07,02,06,57,13.20
2009,07,02,06,58,13.10
2009,07,02,06,59,13.10
2009,07,02,07,00,13.00
2009,07,02,07,01,13.10
2009,07,02,07,02,13.10
2009,07,02,07,03,13.20
2009,07,02,07,04,13.20
2009,07,02,07,05,13.30
2009,07,02,07,06,13.40
2009,07,02,07,07,13.50
2009,07,02,07,08,13.60
2009,07,02,07,09,13.70
2009,07,02,07,10,13.70
2009,07,02,07,11,13.80
2009,07,02,07,12,13.90
2009,07,02,07,13,14.00
2009,07,02,07,14,14.10
2009,07,02,07,15,14.20
2009,07,02,07,16,14.30
2009,07,02,07,17,14.40
2009,07,02,07,18,14.50
2009,07,02,07,19,14.60
2009,07,02,07,20,14.70
2009,07,02,07,21,14.80
2009,07,02,07,22,15.00
2009,07,02,07,23,15.10
2009,07,02,07,24,15.30
2009,07,02,07,25,15.30
2009,07,02,07,26,15.50
2009,07,02,07,27,15.60
2009,07,02,07,28,15.60
2009,07,02,07,29,15.80
2009,07,02,07,30,15.80
2009,07,02,07,31,16.00
2009,07,02,07,32,16.10
2009,07,02,07,33,16.20
2009,07,02,07,34,16.30
2009,07,02,07,35,16.40
2009,07,02,07,36,16.40
2009,07,02,07,37,16.50
2009,07,02,07,38,16.60
2009,07,02,07,39,16.70
2009,07,02,07,40,16.80
2009,07,02,07,41,16.80
2009,07,02,07,42,16.90
2009,07,02,07,43,17.00
2009,07,02,07,44,17.10
2009,07,02,07,45,17.20
2009,07,02,07,46,17.30
2009,07,02,07,47,17.30
2009,07,02,07,48,17.40
2009,07,02,07,49,17.50
2009,07,02,07,50,17.60
2009,07,02,07,51,17.70
2009,07,02,07,52,17.80
2009,07,02,07,53,17.80
2009,07,02,07,54,17.90
2009,07,02,07,55,17.90
2009,07,02,07,56,17.90
2009,07,02,07,57,17.90
2009,07,02,07,58,17.90
2009,07,02,07,59,18.00
2009,07,02,08,00,18.10
2009,07,02,08,01,18.10
2009,07,02,08,02,18.20
2009,07,02,08,03,18.20
2009,07,02,08,04,18.30
2009,07,02,08,05,18.30
2009,07,02,08,06,18.40
2009,07,02,08,07,18.30
2009,07,02,08,08,18.30
2009,07,02,08,09,18.30
2009,07,02,08,10,18.30
2009,07,02,08,11,18.30
2009,07,02,08,12,18.40
2009,07,02,08,13,18.40
2009,07,02,08,14,18.50
2009,07,02,08,15,18.60
2009,07,02,08,16,18.60
2009,07,02,08,17,18.60
2009,07,02,08,18,18.70
2009,07,02,08,19,18.70
2009,07,02,08,20,18.70
2009,07,02,08,21,18.70
2009,07,02,08,22,18.80
2009,07,02,08,23,18.80
2009,07,02,08,24,18.90
2009,07,02,08,25,18.90
2009,07,02,08,26,19.00
2009,07,02,08,27,19.10
2009,07,02,08,28,19.10
2009,07,02,08,29,19.20
2009,07,02,08,30,19.30
2009,07,02,08,31,19.40
2009,07,02,08,32,19.40
2009,07,02,08,33,19.40
2009,07,02,08,34,19.40
2009,07,02,08,35,19.40
2009,07,02,08,36,19.50
2009,07,02,08,37,19.40
2009,07,02,08,38,19.40
2009,07,02,08,39,19.30
2009,07,02,08,40,19.20
2009,07,02,08,41,19.10
2009,07,02,08,42,19.10
2009,07,02,08,43,19.20
2009,07,02,08,44,19.20
2009,07,02,08,45,19.20
2009,07,02,08,46,19.30
2009,07,02,08,47,19.40
2009,07,02,08,48,19.50
2009,07,02,08,49,19.60
2009,07,02,08,50,19.60
2009,07,02,08,51,19.60
2009,07,02,08,52,19.60
2009,07,02,08,53,19.60
2009,07,02,08,54,19.70
2009,07,02,08,55,19.80
2009,07,02,08,56,19.80
2009,07,02,08,57,19.80
2009,07,02,08,58,19.80
2009,07,02,08,59,19.80
2009,07,02,09,00,19.80
2009,07,02,09,01,19.90
2009,07,02,09,02,19.90
2009,07,02,09,03,19.90
2009,07,02,09,04,19.90
2009,07,02,09,05,19.90
2009,07,02,09,06,19.90
2009,07,02,09,07,19.90
2009,07,02,09,08,20.00
2009,07,02,09,09,20.10
2009,07,02,09,10,20.10
2009,07,02,09,11,20.20
2009,07,02,09,12,20.20
2009,07,02,09,13,20.20
2009,07,02,09,14,20.30
2009,07,02,09,15,20.30
2009,07,02,09,16,20.30
2009,07,02,09,17,20.30
2009,07,02,09,18,20.30
2009,07,02,09,19,20.30
2009,07,02,09,20,20.30
2009,07,02,09,21,20.30
2009,07,02,09,22,20.30
2009,07,02,09,23,20.30
2009,07,02,09,24,20.30
2009,07,02,09,25,20.30
2009,07,02,09,26,20.30
2009,07,02,09,27,20.30
2009,07,02,09,28,20.30
2009,07,02,09,29,20.30
2009,07,02,09,30,20.20
2009,07,02,09,31,20.20
2009,07,02,09,32,20.20
2009,07,02,09,33,20.20
2009,07,02,09,34,20.30
2009,07,02,09,35,20.30
2009,07,02,09,36,20.40
2009,07,02,09,37,20.40
2009,07,02,09,38,20.40
2009,07,02,09,39,20.40
2009,07,02,09,40,20.30
2009,07,02,09,41,20.20
2009,07,02,09,42,20.20
2009,07,02,09,43,20.30
2009,07,02,09,44,20.30
2009,07,02,09,45,20.40
2009,07,02,09,46,20.50
2009,07,02,09,47,20.50
2009,07,02,09,48,20.50
2009,07,02,09,49,20.60
2009,07,02,09,50,20.70
2009,07,02,09,51,20.70
2009,07,02,09,52,20.80
2009,07,02,09,53,20.70
2009,07,02,09,54,20.60
2009,07,02,09,55,20.60
2009,07,02,09,56,20.50
2009,07,02,09,57,20.50
2009,07,02,09,58,20.40
2009,07,02,09,59,20.50
2009,07,02,10,00,20.50
2009,07,02,10,01,20.50
2009,07,02,10,02,20.50
2009,07,02,10,03,20.50
2009,07,02,10,04,20.40
2009,07,02,10,05,20.40
2009,07,02,10,06,20.40
2009,07,02,10,07,20.30
2009,07,02,10,08,20.30
2009,07,02,10,09,20.20
2009,07,02,10,10,20.20
2009,07,02,10,11,20.20
2009,07,02,10,12,20.20
2009,07,02,10,13,20.20
2009,07,02,10,14,20.20
2009,07,02,10,15,20.40
2009,07,02,10,16,20.40
2009,07,02,10,17,20.40
2009,07,02,10,18,20.40
2009,07,02,10,19,20.40
2009,07,02,10,20,20.30
2009,07,02,10,21,20.30
2009,07,02,10,22,20.40
2009,07,02,10,23,20.50
2009,07,02,10,24,20.60
2009,07,02,10,25,20.80
2009,07,02,10,26,21.00
2009,07,02,10,27,21.10
2009,07,02,10,28,21.20
2009,07,02,10,29,21.20
2009,07,02,10,30,21.30
2009,07,02,10,31,21.30
2009,07,02,10,32,21.30
2009,07,02,10,33,21.20
2009,07,02,10,34,21.20
2009,07,02,10,35,21.20
2009,07,02,10,36,21.20
2009,07,02,10,37,21.30
2009,07,02,10,38,21.30
2009,07,02,10,39,21.30
2009,07,02,10,40,21.50
2009,07,02,10,41,21.60
2009,07,02,10,42,21.70
2009,07,02,10,43,21.80
2009,07,02,10,44,21.90
2009,07,02,10,45,22.00
2009,07,02,10,46,22.00
2009,07,02,10,47,22.00
2009,07,02,10,48,21.90
2009,07,02,10,49,21.70
2009,07,02,10,50,21.70
2009,07,02,10,51,21.60
2009,07,02,10,52,21.50
2009,07,02,10,53,21.40
2009,07,02,10,54,21.40
2009,07,02,10,55,21.60
2009,07,02,10,56,21.70
2009,07,02,10,57,21.80
2009,07,02,10,58,22.00
2009,07,02,10,59,22.00
2009,07,02,11,00,22.00
2009,07,02,11,01,21.80
2009,07,02,11,02,21.70
2009,07,02,11,03,21.80
2009,07,02,11,04,21.80
2009,07,02,11,05,21.70
2009,07,02,11,06,21.70
2009,07,02,11,07,21.80
2009,07,02,11,08,21.80
2009,07,02,11,09,21.60
2009,07,02,11,10,21.60
2009,07,02,11,11,21.50
2009,07,02,11,12,21.40
2009,07,02,11,13,21.30
2009,07,02,11,14,21.10
2009,07,02,11,15,20.90
2009,07,02,11,16,20.90
2009,07,02,11,17,20.90
2009,07,02,11,18,21.10
2009,07,02,11,19,21.10
2009,07,02,11,20,21.10
2009,07,02,11,21,21.10
2009,07,02,11,22,21.10
2009,07,02,11,23,21.10
2009,07,02,11,24,21.00
2009,07,02,11,25,20.90
2009,07,02,11,26,20.90
2009,07,02,11,27,21.00
2009,07,02,11,28,21.10
2009,07,02,11,29,21.30
2009,07,02,11,30,21.40
2009,07,02,11,31,21.50
2009,07,02,11,32,21.50
2009,07,02,11,33,21.40
2009,07,02,11,34,21.50
2009,07,02,11,35,21.60
2009,07,02,11,36,21.60
2009,07,02,11,37,21.60
2009,07,02,11,38,21.60
2009,07,02,11,39,21.80
2009,07,02,11,40,21.90
2009,07,02,11,41,22.00
2009,07,02,11,42,22.00
2009,07,02,11,43,21.90
2009,07,02,11,44,21.60
2009,07,02,11,45,21.40
2009,07,02,11,46,21.30
2009,07,02,11,47,21.30
2009,07,02,11,48,21.30
2009,07,02,11,49,21.30
2009,07,02,11,50,21.30
2009,07,02,11,51,21.30
2009,07,02,11,52,21.30
2009,07,02,11,53,21.40
2009,07,02,11,54,21.40
2009,07,02,11,55,21.30
2009,07,02,11,56,21.30
2009,07,02,11,57,21.30
2009,07,02,11,58,21.30
2009,07,02,11,59,21.40
2009,07,02,12,00,21.60
2009,07,02,12,01,21.70
2009,07,02,12,02,21.80
2009,07,02,12,03,21.80
2009,07,02,12,04,21.60
2009,07,02,12,05,21.60
2009,07,02,12,06,21.60
2009,07,02,12,07,21.70
2009,07,02,12,08,21.80
2009,07,02,12,09,21.80
2009,07,02,12,10,21.90
2009,07,02,12,11,22.00
2009,07,02,12,12,22.10
2009,07,02,12,13,22.10
2009,07,02,12,14,22.10
2009,07,02,12,15,22.10
2009,07,02,12,16,22.00
2009,07,02,12,17,21.90
2009,07,02,12,18,22.00
2009,07,02,12,19,22.00
2009,07,02,12,20,21.90
2009,07,02,12,21,21.90
2009,07,02,12,22,21.90
2009,07,02,12,23,21.90
2009,07,02,12,24,22.00
2009,07,02,12,25,22.00
2009,07,02,12,26,22.10
2009,07,02,12,27,22.30
2009,07,02,12,28,22.40
2009,07,02,12,29,22.30
2009,07,02,12,30,22.30
2009,07,02,12,31,22.30
2009,07,02,12,32,22.30
2009,07,02,12,33,22.30
2009,07,02,12,34,22.20
2009,07,02,12,35,22.10
2009,07,02,12,36,22.20
2009,07,02,12,37,22.00
2009,07,02,12,38,22.00
2009,07,02,12,39,22.10
2009,07,02,12,40,22.10
2009,07,02,12,41,22.20
2009,07,02,12,42,22.10
2009,07,02,12,43,22.10
2009,07,02,12,44,22.00
2009,07,02,12,45,22.00
2009,07,02,12,46,22.10
2009,07,02,12,47,22.20
2009,07,02,12,48,22.00
2009,07,02,12,49,22.00
2009,07,02,12,50,22.20
2009,07,02,12,51,22.20
2009,07,02,12,52,22.30
2009,07,02,12,53,22.30
2009,07,02,12,54,22.20
2009,07,02,12,55,22.10
2009,07,02,12,56,22.10
2009,07,02,12,57,22.10
2009,07,02,12,58,22.00
2009,07,02,12,59,22.00
2009,07,02,13,00,22.00
2009,07,02,13,01,22.00
2009,07,02,13,02,22.00
2009,07,02,13,03,22.10
2009,07,02,13,04,22.20
2009,07,02,13,05,22.30
2009,07,02,13,06,22.50
2009,07,02,13,07,22.60
2009,07,02,13,08,22.70
2009,07,02,13,09,22.80
2009,07,02,13,10,22.80
2009,07,02,13,11,22.80
2009,07,02,13,12,22.80
2009,07,02,13,13,22.80
2009,07,02,13,14,22.90
2009,07,02,13,15,22.90
2009,07,02,13,16,23.00
2009,07,02,13,17,23.20
2009,07,02,13,18,23.30
2009,07,02,13,19,23.20
2009,07,02,13,20,23.20
2009,07,02,13,21,23.10
2009,07,02,13,22,23.10
2009,07,02,13,23,23.10
2009,07,02,13,24,23.10
2009,07,02,13,25,22.90
2009,07,02,13,26,23.00
2009,07,02,13,27,23.10
2009,07,02,13,28,23.20
2009,07,02,13,29,23.20
2009,07,02,13,30,23.10
2009,07,02,13,31,23.20
2009,07,02,13,32,23.20
2009,07,02,13,33,23.30
2009,07,02,13,34,23.30
2009,07,02,13,35,23.20
2009,07,02,13,36,23.20
2009,07,02,13,37,23.20
2009,07,02,13,38,23.30
2009,07,02,13,39,23.40
2009,07,02,13,40,23.50
2009,07,02,13,41,23.50
2009,07,02,13,42,23.50
2009,07,02,13,43,23.60
2009,07,02,13,44,23.70
2009,07,02,13,45,23.70
2009,07,02,13,46,23.70
2009,07,02,13,47,23.70
2009,07,02,13,48,23.70
2009,07,02,13,49,23.60
2009,07,02,13,50,23.30
2009,07,02,13,51,23.30
2009,07,02,13,52,23.30
2009,07,02,13,53,23.30
2009,07,02,13,54,23.30
2009,07,02,13,55,23.20
2009,07,02,13,56,23.20
2009,07,02,13,57,23.10
2009,07,02,13,58,23.20
2009,07,02,13,59,23.20
2009,07,02,14,00,23.20
2009,07,02,14,01,23.20
2009,07,02,14,02,23.30
2009,07,02,14,03,23.30
2009,07,02,14,04,23.50
2009,07,02,14,05,23.60
2009,07,02,14,06,23.60
2009,07,02,14,07,23.40
2009,07,02,14,08,23.30
2009,07,02,14,09,23.40
2009,07,02,14,10,23.40
2009,07,02,14,11,23.50
2009,07,02,14,12,23.60
2009,07,02,14,13,23.70
2009,07,02,14,14,23.60
2009,07,02,14,15,23.60
2009,07,02,14,16,23.60
2009,07,02,14,17,23.50
2009,07,02,14,18,23.40
2009,07,02,14,19,23.30
2009,07,02,14,20,23.30
2009,07,02,14,21,23.30
2009,07,02,14,22,23.30
2009,07,02,14,23,23.30
2009,07,02,14,24,23.30
2009,07,02,14,25,23.30
2009,07,02,14,26,23.30
2009,07,02,14,27,23.30
2009,07,02,14,28,23.30
2009,07,02,14,29,23.40
2009,07,02,14,30,23.40
2009,07,02,14,31,23.50
2009,07,02,14,32,23.60
2009,07,02,14,33,23.70
2009,07,02,14,34,23.70
2009,07,02,14,35,23.70
2009,07,02,14,36,23.70
2009,07,02,14,37,23.60
2009,07,02,14,38,23.50
2009,07,02,14,39,23.40
2009,07,02,14,40,23.30
2009,07,02,14,41,23.30
2009,07,02,14,42,23.50
2009,07,02,14,43,23.60
2009,07,02,14,44,23.60
2009,07,02,14,45,23.60
2009,07,02,14,46,23.70
2009,07,02,14,47,23.70
2009,07,02,14,48,23.80
2009,07,02,14,49,23.90
2009,07,02,14,50,24.00
2009,07,02,14,51,24.10
2009,07,02,14,52,24.10
2009,07,02,14,53,24.10
2009,07,02,14,54,24.10
2009,07,02,14,55,24.10
2009,07,02,14,56,24.20
2009,07,02,14,57,24.10
2009,07,02,14,58,24.10
2009,07,02,14,59,24.10
2009,07,02,15,00,24.10
2009,07,02,15,01,24.10
2009,07,02,15,02,24.10
2009,07,02,15,03,24.20
2009,07,02,15,04,24.20
2009,07,02,15,05,24.30
2009,07,02,15,06,24.30
2009,07,02,15,07,24.40
2009,07,02,15,08,24.40
2009,07,02,15,09,24.30
2009,07,02,15,10,24.30
2009,07,02,15,11,24.20
2009,07,02,15,12,24.20
2009,07,02,15,13,24.10
2009,07,02,15,14,24.10
2009,07,02,15,15,24.10
2009,07,02,15,16,24.00
2009,07,02,15,17,23.90
2009,07,02,15,18,24.00
2009,07,02,15,19,24.10
2009,07,02,15,20,24.10
2009,07,02,15,21,24.20
2009,07,02,15,22,24.30
2009,07,02,15,23,24.40
2009,07,02,15,24,24.50
2009,07,02,15,25,24.50
2009,07,02,15,26,24.50
2009,07,02,15,27,24.50
2009,07,02,15,28,24.50
2009,07,02,15,29,24.50
2009,07,02,15,30,24.50
2009,07,02,15,31,24.60
2009,07,02,15,32,24.70
2009,07,02,15,33,24.70
2009,07,02,15,34,24.80
2009,07,02,15,35,24.90
2009,07,02,15,36,24.90
2009,07,02,15,37,24.90
2009,07,02,15,38,24.70
2009,07,02,15,39,24.70
2009,07,02,15,40,24.80
2009,07,02,15,41,24.80
2009,07,02,15,42,24.70
2009,07,02,15,43,24.80
2009,07,02,15,44,24.80
2009,07,02,15,45,24.80
2009,07,02,15,46,24.80
2009,07,02,15,47,24.80
2009,07,02,15,48,24.70
2009,07,02,15,49,24.70
2009,07,02,15,50,24.60
2009,07,02,15,51,24.50
2009,07,02,15,52,24.50
2009,07,02,15,53,24.50
2009,07,02,15,54,24.40
2009,07,02,15,55,24.40
2009,07,02,15,56,24.40
2009,07,02,15,57,24.30
2009,07,02,15,58,24.30
2009,07,02,15,59,24.30
2009,07,02,16,00,24.30
2009,07,02,16,01,24.30
2009,07,02,16,02,24.30
2009,07,02,16,03,24.30
2009,07,02,16,04,24.30
2009,07,02,16,05,24.40
2009,07,02,16,06,24.50
2009,07,02,16,07,24.60
2009,07,02,16,08,24.70
2009,07,02,16,09,24.80
2009,07,02,16,10,24.80
2009,07,02,16,11,24.80
2009,07,02,16,12,24.80
2009,07,02,16,13,24.80
2009,07,02,16,14,24.90
2009,07,02,16,15,25.00
2009,07,02,16,16,25.00
2009,07,02,16,17,25.10
2009,07,02,16,18,25.10
2009,07,02,16,19,25.10
2009,07,02,16,20,25.10
2009,07,02,16,21,25.10
2009,07,02,16,22,25.10
2009,07,02,16,23,25.10
2009,07,02,16,24,25.10
2009,07,02,16,25,25.10
2009,07,02,16,26,25.20
2009,07,02,16,27,25.30
2009,07,02,16,28,25.30
2009,07,02,16,29,25.30
2009,07,02,16,30,25.20
2009,07,02,16,31,25.20
2009,07,02,16,32,25.00
2009,07,02,16,33,24.80
2009,07,02,16,34,24.80
2009,07,02,16,35,24.70
2009,07,02,16,36,24.60
2009,07,02,16,37,24.60
2009,07,02,16,38,24.60
2009,07,02,16,39,24.70
2009,07,02,16,40,24.80
2009,07,02,16,41,24.80
2009,07,02,16,42,24.90
2009,07,02,16,43,25.00
2009,07,02,16,44,25.00
2009,07,02,16,45,25.10
2009,07,02,16,46,25.20
2009,07,02,16,47,25.30
2009,07,02,16,48,25.40
2009,07,02,16,49,25.50
2009,07,02,16,50,25.60
2009,07,02,16,51,25.60
2009,07,02,16,52,25.50
2009,07,02,16,53,25.40
2009,07,02,16,54,25.40
2009,07,02,16,55,25.40
2009,07,02,16,56,25.40
2009,07,02,16,57,25.40
2009,07,02,16,58,25.50
2009,07,02,16,59,25.50
2009,07,02,17,00,25.60
2009,07,02,17,01,25.70
2009,07,02,17,02,25.70
2009,07,02,17,03,25.70
2009,07,02,17,04,25.80
2009,07,02,17,05,25.80
2009,07,02,17,06,25.90
2009,07,02,17,07,25.90
2009,07,02,17,08,25.90
2009,07,02,17,09,25.80
2009,07,02,17,10,25.80
2009,07,02,17,11,25.80
2009,07,02,17,12,25.80
2009,07,02,17,13,25.90
2009,07,02,17,14,25.90
2009,07,02,17,15,26.00
2009,07,02,17,16,26.00
2009,07,02,17,17,25.90
2009,07,02,17,18,25.90
2009,07,02,17,19,25.90
2009,07,02,17,20,25.80
2009,07,02,17,21,25.80
2009,07,02,17,22,25.70
2009,07,02,17,23,25.70
2009,07,02,17,24,25.70
2009,07,02,17,25,25.70